Home   Weather   Pierre   Past weeks
Flag for USA

Past Weather in Pierre, South Dakota, USA — Yesterday and Last 2 Weeks

Now
79 °F

Sunny.


Feels Like: 82 °F
Forecast: 90 / 68 °F
Wind: 7 mph from Northeast

Location: Pierre Regional Airport

Current Time: Jul 17, 2019 at 9:41:40 pm

Latest Report: Jul 17, 2019 at 8:53 pm


Visibility: 10 mi

Pressure: 29.70 "Hg

Humidity: 72%

Dew Point: 69 °F

Location of PierreLocation

Past Weather in Pierre — Graph

°F

Pierre Temperature Yesterday

Maximum temperature yesterday: 89 °F (at 4:53 pm)
Minimum temperature yesterday: 68 °F (at 5:53 am)
Average temperature yesterday: 78 °F

High & Low Weather Summary for the Past Weeks

 TemperatureHumidityPressure
High91 °F (Jul 13, 4:53 pm)100% (Jul 5, 1:38 am)30.25 "Hg (Jul 5, 1:38 am)
Low58 °F (Jul 11, 4:53 am)42% (Jul 15, 11:53 am)29.67 "Hg (Jul 9, 12:53 am)
Average74 °F75%29.90 "Hg
* Reported Jul 2 7:53 pm — Jul 17 7:53 pm, Pierre. Weather by CustomWeather, © 2019

Note: Actual official high and low records may vary slightly from our data, if they occured in-between our weather recording intervals... More about our weather records

Advertising

Pierre Weather History for the Previous 24 Hours

Scroll right to see more
 ConditionsComfort  
Time TempWeatherWind HumidityBarometerVisibility
7:53 pm
Wed, Jul 17
84 °FSunny.5 mph59%29.68 "Hg10 mi
6:53 pm87 °FSunny.5 mph51%29.69 "Hg10 mi
5:53 pm85 °FSunny.3 mph53%29.71 "Hg10 mi
4:53 pm86 °FSunny.7 mph53%29.73 "Hg9 mi
3:53 pm85 °FSunny.N/A51%29.74 "Hg10 mi
2:53 pm84 °FSunny.8 mph53%29.75 "Hg10 mi
1:53 pm82 °FSunny.8 mph56%29.77 "Hg10 mi
12:53 pm80 °FSunny.8 mph58%29.77 "Hg10 mi
11:53 am78 °FSunny.10 mph62%29.76 "Hg10 mi
10:53 am76 °FSunny.15 mph72%29.76 "Hg10 mi
9:53 am72 °FSunny.12 mph81%29.75 "Hg10 mi
8:53 am68 °FPartly sunny.7 mph87%29.77 "Hg10 mi
7:53 am66 °FScattered clouds.8 mph96%29.77 "Hg10 mi
7:33 am66 °FScattered clouds.12 mph96%29.80 "Hg10 mi
7:15 am66 °FThundershowers. Partly sunny.14 mph93%29.80 "Hg10 mi
6:41 am66 °FStrong thunderstorms. Fog.7 mph90%29.84 "Hg6 mi
5:53 am66 °FThundershowers. Passing clouds.7 mph90%29.80 "Hg8 mi
5:36 am66 °FThundershowers. Partly cloudy.8 mph90%29.82 "Hg10 mi
5:01 am66 °FLight rain. Overcast.13 mph90%29.83 "Hg10 mi
3:53 am66 °FLight rain. Passing clouds.10 mph87%29.79 "Hg10 mi
3:24 am67 °FThunderstorms. Mostly cloudy.15 mph81%29.81 "Hg10 mi
3:15 am66 °FThundershowers. Passing clouds.21 mph84%29.80 "Hg10 mi
2:53 am66 °FLight rain. Passing clouds.22 mph87%29.76 "Hg10 mi
1:53 am73 °FPassing clouds.31 mph62%29.81 "Hg10 mi
12:53 am72 °FClear.16 mph71%29.75 "Hg10 mi
11:53 pm
Tue, Jul 16
77 °FPassing clouds.24 mph69%29.69 "Hg10 mi
11:44 pm76 °FThundershowers. Partly cloudy.35 mph74%29.71 "Hg10 mi
10:53 pm78 °FPassing clouds.10 mph64%29.74 "Hg10 mi
9:53 pm79 °FPassing clouds.10 mph60%29.77 "Hg10 mi
Weather by CustomWeather, © 2019

See weather overview